Regional Weather Roundup
Issued by NWS

Home | Current Version | Previous Version | Graphics & Text | Print | Product List | Glossary On
Versions: 1 2 3 4 5 6 7 8 9 10 11 12 13 14 15 16 17 18 19 20 21 22 23 24 25 26 27 28 29 30 31 32 33 34 35 36 37 38 39 40 41 42 43 44 45 46 47 48 49 50
858
ASUS43 KLOT 200908
RWRIL

ILLINOIS REGIONAL WEATHER ROUNDUP
NATIONAL WEATHER SERVICE CHICAGO/ROMEOVILLE IL
300 AM CST FRI JAN 20 2017

NOTE: "FAIR" INDICATES FEW OR NO CLOUDS BELOW 12,000 FEET WITH NO
SIGNIFICANT WEATHER AND/OR OBSTRUCTIONS TO VISIBILITY.

* THESE STATIONS ARE NOT UNDER NWS QUALITY CONTROL. THEY ALSO MAY NOT
  REPORT WEATHER SUCH AS PRECIPITATION OR FOG.

ILZ001-002-007-009-015-016-024-201000-
NORTHWEST ILLINOIS

CITY           SKY/WX    TMP DP  RH WIND       PRES   REMARKS
MOLINE         FOG       37  36  96 E6        29.63R VSB 1/4 WCI  32
STERLING*      FOG       36  35  96 E7        29.64F VSB 3/4 WCI  30
SAVANNA*       FOG       36  36  99 NE5       29.65S VSB 1   WCI  32
$$

ILZ003-004-008-010-011-017-018-201000-
NORTH CENTRAL ILLINOIS

CITY           SKY/WX    TMP DP  RH WIND       PRES   REMARKS
ROCKFORD       DRIZZLE   38  36  92 E7        29.66S FOG     WCI  33
FREEPORT*      FOG       35  35  99 E3        29.67S VSB 1/2
ROCHELLE*      FOG       36  36 100 E5        29.64S VSB 1   WCI  32
DE KALB*       CLOUDY    38  37  99 E8        29.64F FOG     WCI  32
$$

ILZ005-006-012>014-019>023-201000-
NORTHEAST ILLINOIS

CITY           SKY/WX    TMP DP  RH WIND       PRES   REMARKS
CHICAGO-OHARE  LGT RAIN  39  37  92 E9        29.65S FOG     WCI  33
CHICAGO-MIDWAY LGT RAIN  38  38 100 NE8       29.65S FOG     WCI  32
AURORA         CLOUDY    39  37  92 NE9       29.64S FOG     WCI  33
LANSING*       RAIN      38  38 100 NE3       29.63F
JOLIET*        RAIN      40  39  99 NE6       29.63F
WAUKEGAN       LGT RAIN  37  36  96 NE15      29.66F FOG     WCI  28
DUPAGE AIRPORT LGT RAIN  38  36  92 NE8       29.64S FOG     WCI  32
KANKAKEE*      LGT RAIN  40  39  97 CALM      29.62S
WHEELING       LGT RAIN  38  37  97 NE8       29.67F FOG     WCI  32
MORRIS*        RAIN      37  36  97 CALM      29.62F
ROMEOVILLE*    RAIN      37  37 100 NE9       29.63F WCI  31
NORTHERLY ISL    N/A     36  35  96 NE7         N/A  WCI  30
$$

LMZ740>746-201000-
SOUTHERN LAKE MICHIGAN

STATION/POSITION SKY/WX   TEMP    WIND        PRES    VSBY  WAVE
                          AIR SEA DIR/SP/G                  HT/PER
                          (F)     (DEG/KT/KT) (MB)    (MI)  (FT/S)
HARRISON CRIB              38      60/ 16/ 17   N/A
BURNHAM HARBOR             36      30/  5/  9   N/A
CALUMET HARBOR             36      40/  8/ 12 1003.3F
BURNS HARBOR               35      80/  9/ 10 1004.4F
MICHIGAN CITY              36      40/ 10/ 11   N/A
$$

ILZ025>027-034>036-040-047-049-050-058-095>099-201000-
WEST-CENTRAL ILLINOIS

CITY           SKY/WX    TMP DP  RH WIND       PRES   REMARKS
QUINCY         FOG       41  41 100 CALM      29.60F VSB 1/4
GALESBURG*     FOG       37  37 100 CALM      29.62F VSB 1/4
MACOMB*        FOG       37  37 100 NW3       29.63S VSB 1/2
JACKSONVILLE*  FOG       41  41  99 W3        29.61R VSB 1/2
PITTSFIELD*    CLOUDY    43  43 100 CALM      29.62S FOG
$$

ILZ028>032-037-038-041>044-048-051>054-059>061-201000-
CENTRAL ILLINOIS

CITY           SKY/WX    TMP DP  RH WIND       PRES   REMARKS
PONTIAC        RAIN      40  40 100 E5        29.62F
BLOOMINGTON    FOG       39  39 100 NE5       29.60F VSB 1/4
DECATUR        LGT RAIN  43  32  65 NW8       29.59S
PEORIA         FOG       39  39 100 N6        29.60F VSB 1/2 WCI  35
LACON*         FOG       37  37 100 CALM      29.62S VSB 1
LINCOLN*       LGT RAIN  42  42 100 N5        29.59F
SPRINGFIELD    CLOUDY    43  42  97 SE3       29.60S FOG
TAYLORVILLE    CLOUDY    43  43 100 S6        29.61R
$$

ILZ033-039-045-046-055>057-062-063-201000-
EAST-CENTRAL ILLINOIS

CITY           SKY/WX    TMP DP  RH WIND       PRES   REMARKS
CHAMPAIGN      LGT RAIN  44  42  93 NE5       29.59S FOG
RANTOUL*       RAIN      44  43  99 NE6       29.59F
MATTOON        LGT RAIN  44  44 100 S7        29.59R
PARIS*         LGT RAIN  45  45 100 N3        29.58F
$$

ILZ079-100>102-201000-
SOUTHWEST ILLINOIS

CITY           SKY/WX    TMP DP  RH WIND       PRES   REMARKS
ALTON          FOG       45  45 100 SW6       29.65R VSB 1/2
BELLEVILLE     CLOUDY    46  46 100 CALM      29.62F FOG
CAHOKIA*       CLOUDY    48  46  93 CALM      29.63S
SPARTA*        CLOUDY    48  48  99 SW5       29.66R FOG
$$

ILZ064>066-069>071-074>076-080>082-084>086-088>090-092>094-201000-
SOUTH-CENTRAL ILLINOIS

CITY           SKY/WX    TMP DP  RH WIND       PRES   REMARKS
CARBONDALE     CLOUDY    53  53 100 SW10      29.65R
CAIRO*         CLOUDY    52  52 100 SW12      29.67S FOG
EFFINGHAM*     LGT RAIN  48  48 100 SW5       29.63S
MARION         CLOUDY    54  54 100 SW8       29.65S
MT. VERNON     CLOUDY    51  50  96 SW15      29.63S
CENTRALIA*     CLOUDY    51  51 100 SW13      29.62S FOG
SALEM*         DRIZZLE   50  49  96 SW6       29.62S
METROPOLIS*    CLOUDY    55  53  93 SW13      29.67F
$$

ILZ067-068-072-073-078-083-087-091-201000-
SOUTHEAST ILLINOIS

CITY           SKY/WX    TMP DP  RH WIND       PRES   REMARKS
LAWRENCEVILLE  LGT RAIN  54  54 100 W8        29.62R
FLORA*         RAIN      51  50  98 W3        29.62S
FAIRFIELD*     DRIZZLE   51  51 100 CALM      29.62S
HARRISBURG*    CLOUDY    55  54  95 W10G20    29.64S
ROBINSON*      LGT RAIN  50  50  99 SW8       29.61S
CARMI*         CLOUDY    56  54  92 SW14      29.63R
$$

ABBREVIATIONS USED IN REMARKS
   TC - TEMPERATURE IN CELSIUS
  WCI - WIND CHILL INDEX
   HX - HEAT INDEX
  VSB - VISIBILITY
$$





USA.gov is the U.S. government's official web portal to all federal, state and local government web resources and services.